This demonstration page uses our WeatherBlox Daily Observations layout. Learn more.

Left ArrowRight Arrow

41.55636, -103.73856

Hourly Observations for February 17, 2018

Temp ( °F °C ) Dew Point ( °F °C ) Humidity (%) Winds ( mph kmh ) Pressure ( in mb ) Visibility ( mi km ) Precip ( " mm )
12:53 am 00:53 Partly Cloudy 34 1.1 17 -8.3 50 50 WNW 16 26 29.89 1012 10 16 N/A
1:53 am 01:53 Clear 34 1.1 17 -8.3 50 50 NW 15 24 29.91 1013 10 16 N/A
2:53 am 02:53 Clear 29 -1.7 18 -7.8 63 63 WNW 10 17 29.92 1013 10 16 N/A
3:53 am 03:53 Clear 28 -2.2 17 -8.3 63 63 N N/A 29.94 1014 10 16 N/A
4:53 am 04:53 Clear 27 -2.8 18 -7.8 69 69 WSW 8 13 29.98 1015 10 16 N/A
5:53 am 05:53 Clear 30 -1.1 17 -8.3 58 58 W 9 15 30.01 1016 10 16 N/A
6:53 am 06:53 Sunny 27 -2.8 16 -8.9 63 63 WNW 6 9 30.06 1018 10 16 N/A
7:53 am 07:53 Sunny 33 0.6 18 -7.8 54 54 NW 9 15 30.06 1018 10 16 N/A
8:53 am 08:53 Sunny 37 2.8 18 -7.8 46 46 W 13 20 30.09 1019 10 16 N/A
9:53 am 09:53 Sunny 40 4.4 16 -8.9 38 38 WNW 16 26 30.09 1019 10 16 N/A
10:53 am 10:53 Sunny 42 5.6 15 -9.4 33 33 NW 14 22 30.06 1018 10 16 N/A
11:53 am 11:53 Sunny 45 7.2 16 -8.9 31 31 NW 7 11 30.02 1017 10 16 N/A
12:53 pm 12:53 Mostly Sunny 51 10.6 15 -9.4 24 24 W 22 35 29.96 1015 10 16 N/A
1:53 pm 13:53 Sunny 50 10 15 -9.4 25 25 W 24 39 29.92 1013 10 16 N/A
2:53 pm 14:53 Sunny 51 10.6 16 -8.9 25 25 W 22 35 29.90 1013 10 16 N/A
3:53 pm 15:53 Sunny 52 11.1 12 -11.1 20 20 W 20 31 29.88 1012 10 16 N/A
4:53 pm 16:53 Sunny 48 8.9 14 -10 25 25 W 9 15 29.85 1011 10 16 N/A
5:53 pm 17:53 Clear 42 5.6 16 -8.9 35 35 S 6 9 29.87 1012 10 16 N/A
6:53 pm 18:53 Clear 39 3.9 17 -8.3 41 41 SE 12 19 29.87 1012 10 16 N/A
7:53 pm 19:53 Clear 44 6.7 17 -8.3 34 34 S 14 22 29.80 1009 10 16 N/A
8:53 pm 20:53 Mostly Clear 44 6.7 17 -8.3 34 34 S 16 26 29.75 1007 10 16 N/A
9:53 pm 21:53 Clear 41 5 20 -6.7 43 43 SSW 15 24 29.70 1006 10 16 N/A
10:53 pm 22:53 Clear 43 6.1 19 -7.2 38 38 SSW 10 17 29.65 1004 10 16 N/A
11:53 pm 23:53 Clear 47 8.3 17 -8.3 30 30 SSE 8 13 29.59 1002 10 16 N/A

Powered by AerisWeather